Location: Cazavet
(43.0017°N, 1.0431°E)
Time: 22:28:10
(UTC+00:00)

Cosmos 2082 Rocket - Pass Details

Date: 18 January 2026
Orbit: 831 x 853 km, 71.0° (Epoch: 13 February)

Event Time Altitude Azimuth Distance (km) Brightness Sun altitude
Exits shadow 05:53:52 12° 331° (NNW) 2,357 4.1 -16.0°
Maximum altitude 05:59:12 72° 249° (WSW) 893 2.1 -15.1°
Drops below altitude 10° 06:04:51 10° 166° (SSE) 2,469 5.0 -14.1°
Sets 06:07:18 0° 164° (SSE) 3,403 5.8 -13.6°
